Year,Month,Day,Hour,Minute,Value (Times are PST for temperature in C)
2009,02,15,00,00,0.50
2009,02,15,00,01,0.50
2009,02,15,00,02,0.50
2009,02,15,00,03,0.40
2009,02,15,00,04,0.50
2009,02,15,00,05,0.50
2009,02,15,00,06,0.50
2009,02,15,00,07,0.60
2009,02,15,00,08,0.60
2009,02,15,00,09,0.60
2009,02,15,00,10,0.60
2009,02,15,00,11,0.60
2009,02,15,00,12,0.60
2009,02,15,00,13,0.60
2009,02,15,00,14,0.60
2009,02,15,00,15,0.60
2009,02,15,00,16,0.70
2009,02,15,00,17,0.70
2009,02,15,00,18,0.70
2009,02,15,00,19,0.70
2009,02,15,00,20,0.70
2009,02,15,00,21,0.70
2009,02,15,00,22,0.70
2009,02,15,00,23,0.70
2009,02,15,00,24,0.70
2009,02,15,00,25,0.70
2009,02,15,00,26,0.70
2009,02,15,00,27,0.70
2009,02,15,00,28,0.70
2009,02,15,00,29,0.70
2009,02,15,00,30,0.70
2009,02,15,00,31,0.70
2009,02,15,00,32,0.70
2009,02,15,00,33,0.70
2009,02,15,00,34,0.70
2009,02,15,00,35,0.70
2009,02,15,00,36,0.70
2009,02,15,00,37,0.70
2009,02,15,00,38,0.70
2009,02,15,00,39,0.70
2009,02,15,00,40,0.70
2009,02,15,00,41,0.80
2009,02,15,00,42,0.80
2009,02,15,00,43,0.70
2009,02,15,00,44,0.70
2009,02,15,00,45,0.70
2009,02,15,00,46,0.70
2009,02,15,00,47,0.70
2009,02,15,00,48,0.70
2009,02,15,00,49,0.70
2009,02,15,00,50,0.70
2009,02,15,00,51,0.70
2009,02,15,00,52,0.70
2009,02,15,00,53,0.70
2009,02,15,00,54,0.70
2009,02,15,00,55,0.60
2009,02,15,00,56,0.60
2009,02,15,00,57,0.60
2009,02,15,00,58,0.60
2009,02,15,00,59,0.70
2009,02,15,01,00,0.70
2009,02,15,01,01,0.70
2009,02,15,01,02,0.70
2009,02,15,01,03,0.80
2009,02,15,01,04,0.80
2009,02,15,01,05,0.80
2009,02,15,01,06,0.80
2009,02,15,01,07,0.80
2009,02,15,01,08,0.80
2009,02,15,01,09,0.80
2009,02,15,01,10,0.80
2009,02,15,01,11,0.80
2009,02,15,01,12,0.80
2009,02,15,01,13,0.90
2009,02,15,01,14,0.80
2009,02,15,01,15,0.90
2009,02,15,01,16,0.90
2009,02,15,01,17,0.90
2009,02,15,01,18,0.90
2009,02,15,01,19,0.90
2009,02,15,01,20,0.90
2009,02,15,01,21,0.90
2009,02,15,01,22,0.90
2009,02,15,01,23,0.90
2009,02,15,01,24,0.90
2009,02,15,01,25,0.90
2009,02,15,01,26,1.00
2009,02,15,01,27,1.00
2009,02,15,01,28,1.10
2009,02,15,01,29,1.10
2009,02,15,01,30,1.10
2009,02,15,01,31,1.10
2009,02,15,01,32,1.10
2009,02,15,01,33,1.10
2009,02,15,01,34,1.10
2009,02,15,01,35,1.10
2009,02,15,01,36,1.00
2009,02,15,01,37,1.00
2009,02,15,01,38,0.90
2009,02,15,01,39,1.00
2009,02,15,01,40,1.00
2009,02,15,01,41,1.00
2009,02,15,01,42,1.00
2009,02,15,01,43,1.00
2009,02,15,01,44,1.00
2009,02,15,01,45,1.00
2009,02,15,01,46,1.00
2009,02,15,01,47,1.00
2009,02,15,01,48,1.00
2009,02,15,01,49,1.00
2009,02,15,01,50,1.10
2009,02,15,01,51,1.10
2009,02,15,01,52,1.10
2009,02,15,01,53,1.20
2009,02,15,01,54,1.20
2009,02,15,01,55,1.20
2009,02,15,01,56,1.20
2009,02,15,01,57,1.30
2009,02,15,01,58,1.30
2009,02,15,01,59,1.30
2009,02,15,02,00,1.30
2009,02,15,02,01,1.30
2009,02,15,02,02,1.30
2009,02,15,02,03,1.30
2009,02,15,02,04,1.30
2009,02,15,02,05,1.30
2009,02,15,02,06,1.30
2009,02,15,02,07,1.30
2009,02,15,02,08,1.30
2009,02,15,02,09,1.30
2009,02,15,02,10,1.30
2009,02,15,02,11,1.30
2009,02,15,02,12,1.30
2009,02,15,02,13,1.30
2009,02,15,02,14,1.20
2009,02,15,02,15,1.20
2009,02,15,02,16,1.20
2009,02,15,02,17,1.20
2009,02,15,02,18,1.20
2009,02,15,02,19,1.20
2009,02,15,02,20,1.30
2009,02,15,02,21,1.30
2009,02,15,02,22,1.30
2009,02,15,02,23,1.30
2009,02,15,02,24,1.30
2009,02,15,02,25,1.30
2009,02,15,02,26,1.30
2009,02,15,02,27,1.30
2009,02,15,02,28,1.30
2009,02,15,02,29,1.30
2009,02,15,02,30,1.40
2009,02,15,02,31,1.40
2009,02,15,02,32,1.50
2009,02,15,02,33,1.60
2009,02,15,02,34,1.70
2009,02,15,02,35,1.70
2009,02,15,02,36,1.80
2009,02,15,02,37,1.80
2009,02,15,02,38,1.90
2009,02,15,02,39,1.90
2009,02,15,02,40,2.00
2009,02,15,02,41,2.10
2009,02,15,02,42,2.10
2009,02,15,02,43,2.20
2009,02,15,02,44,2.20
2009,02,15,02,45,2.20
2009,02,15,02,46,2.20
2009,02,15,02,47,2.30
2009,02,15,02,48,2.30
2009,02,15,02,49,2.30
2009,02,15,02,50,2.30
2009,02,15,02,51,2.30
2009,02,15,02,52,2.30
2009,02,15,02,53,2.30
2009,02,15,02,54,2.30
2009,02,15,02,55,2.20
2009,02,15,02,56,2.20
2009,02,15,02,57,2.20
2009,02,15,02,58,2.20
2009,02,15,02,59,2.20
2009,02,15,03,00,2.20
2009,02,15,03,01,2.20
2009,02,15,03,02,2.20
2009,02,15,03,03,2.20
2009,02,15,03,04,2.20
2009,02,15,03,05,2.20
2009,02,15,03,06,2.30
2009,02,15,03,07,2.30
2009,02,15,03,08,2.30
2009,02,15,03,09,2.30
2009,02,15,03,10,2.30
2009,02,15,03,11,2.40
2009,02,15,03,12,2.30
2009,02,15,03,13,2.40
2009,02,15,03,14,2.40
2009,02,15,03,15,2.40
2009,02,15,03,16,2.40
2009,02,15,03,17,2.40
2009,02,15,03,18,2.40
2009,02,15,03,19,2.40
2009,02,15,03,20,2.40
2009,02,15,03,21,2.40
2009,02,15,03,22,2.40
2009,02,15,03,23,2.40
2009,02,15,03,24,2.40
2009,02,15,03,25,2.40
2009,02,15,03,26,2.40
2009,02,15,03,27,2.40
2009,02,15,03,28,2.50
2009,02,15,03,29,2.50
2009,02,15,03,30,2.50
2009,02,15,03,31,2.50
2009,02,15,03,32,2.50
2009,02,15,03,33,2.40
2009,02,15,03,34,2.40
2009,02,15,03,35,2.40
2009,02,15,03,36,2.40
2009,02,15,03,37,2.40
2009,02,15,03,38,2.40
2009,02,15,03,39,2.40
2009,02,15,03,40,2.30
2009,02,15,03,41,2.30
2009,02,15,03,42,2.30
2009,02,15,03,43,2.30
2009,02,15,03,44,2.30
2009,02,15,03,45,2.30
2009,02,15,03,46,2.30
2009,02,15,03,47,2.30
2009,02,15,03,48,2.30
2009,02,15,03,49,2.30
2009,02,15,03,50,2.30
2009,02,15,03,51,2.30
2009,02,15,03,52,2.30
2009,02,15,03,53,2.30
2009,02,15,03,54,2.30
2009,02,15,03,55,2.30
2009,02,15,03,56,2.30
2009,02,15,03,57,2.30
2009,02,15,03,58,2.30
2009,02,15,03,59,2.30
2009,02,15,04,00,2.30
2009,02,15,04,01,2.30
2009,02,15,04,02,2.30
2009,02,15,04,03,2.30
2009,02,15,04,04,2.30
2009,02,15,04,05,2.30
2009,02,15,04,06,2.30
2009,02,15,04,07,2.30
2009,02,15,04,08,2.30
2009,02,15,04,09,2.30
2009,02,15,04,10,2.30
2009,02,15,04,11,2.30
2009,02,15,04,12,2.30
2009,02,15,04,13,2.30
2009,02,15,04,14,2.20
2009,02,15,04,15,2.20
2009,02,15,04,16,2.20
2009,02,15,04,17,2.20
2009,02,15,04,18,2.20
2009,02,15,04,19,2.20
2009,02,15,04,20,2.20
2009,02,15,04,21,2.20
2009,02,15,04,22,2.20
2009,02,15,04,23,2.20
2009,02,15,04,24,2.20
2009,02,15,04,25,2.20
2009,02,15,04,26,2.20
2009,02,15,04,27,2.20
2009,02,15,04,28,2.10
2009,02,15,04,29,2.10
2009,02,15,04,30,2.10
2009,02,15,04,31,2.00
2009,02,15,04,32,2.00
2009,02,15,04,33,1.90
2009,02,15,04,34,1.90
2009,02,15,04,35,1.80
2009,02,15,04,36,1.80
2009,02,15,04,37,1.70
2009,02,15,04,38,1.70
2009,02,15,04,39,1.70
2009,02,15,04,40,1.70
2009,02,15,04,41,1.70
2009,02,15,04,42,1.70
2009,02,15,04,43,1.70
2009,02,15,04,44,1.70
2009,02,15,04,45,1.70
2009,02,15,04,46,1.70
2009,02,15,04,47,1.70
2009,02,15,04,48,1.60
2009,02,15,04,49,1.60
2009,02,15,04,50,1.60
2009,02,15,04,51,1.60
2009,02,15,04,52,1.70
2009,02,15,04,53,1.60
2009,02,15,04,54,1.40
2009,02,15,04,55,1.30
2009,02,15,04,56,1.30
2009,02,15,04,57,1.30
2009,02,15,04,58,1.30
2009,02,15,04,59,1.30
2009,02,15,05,00,1.20
2009,02,15,05,01,1.10
2009,02,15,05,02,1.00
2009,02,15,05,03,0.90
2009,02,15,05,04,0.90
2009,02,15,05,05,0.90
2009,02,15,05,06,0.90
2009,02,15,05,07,1.00
2009,02,15,05,08,1.00
2009,02,15,05,09,1.00
2009,02,15,05,10,0.90
2009,02,15,05,11,0.90
2009,02,15,05,12,0.90
2009,02,15,05,13,0.90
2009,02,15,05,14,0.90
2009,02,15,05,15,0.70
2009,02,15,05,16,0.60
2009,02,15,05,17,0.50
2009,02,15,05,18,0.50
2009,02,15,05,19,0.40
2009,02,15,05,20,0.40
2009,02,15,05,21,0.30
2009,02,15,05,22,0.30
2009,02,15,05,23,0.20
2009,02,15,05,24,0.10
2009,02,15,05,25,0.00
2009,02,15,05,26,0.00
2009,02,15,05,27,0.10
2009,02,15,05,28,0.20
2009,02,15,05,29,0.20
2009,02,15,05,30,0.30
2009,02,15,05,31,0.30
2009,02,15,05,32,0.40
2009,02,15,05,33,0.50
2009,02,15,05,34,0.50
2009,02,15,05,35,0.60
2009,02,15,05,36,0.60
2009,02,15,05,37,0.70
2009,02,15,05,38,0.70
2009,02,15,05,39,0.80
2009,02,15,05,40,0.90
2009,02,15,05,41,1.00
2009,02,15,05,42,1.00
2009,02,15,05,43,1.00
2009,02,15,05,44,1.00
2009,02,15,05,45,1.00
2009,02,15,05,46,1.00
2009,02,15,05,47,1.00
2009,02,15,05,48,0.90
2009,02,15,05,49,0.90
2009,02,15,05,50,0.80
2009,02,15,05,51,0.80
2009,02,15,05,52,0.90
2009,02,15,05,53,0.90
2009,02,15,05,54,1.00
2009,02,15,05,55,1.00
2009,02,15,05,56,1.10
2009,02,15,05,57,1.10
2009,02,15,05,58,1.10
2009,02,15,05,59,1.20
2009,02,15,06,00,1.20
2009,02,15,06,01,1.10
2009,02,15,06,02,1.10
2009,02,15,06,03,1.00
2009,02,15,06,04,1.00
2009,02,15,06,05,0.90
2009,02,15,06,06,0.90
2009,02,15,06,07,0.90
2009,02,15,06,08,0.90
2009,02,15,06,09,0.80
2009,02,15,06,10,0.80
2009,02,15,06,11,0.70
2009,02,15,06,12,0.70
2009,02,15,06,13,0.60
2009,02,15,06,14,0.50
2009,02,15,06,15,0.50
2009,02,15,06,16,0.50
2009,02,15,06,17,0.50
2009,02,15,06,18,0.60
2009,02,15,06,19,0.70
2009,02,15,06,20,0.70
2009,02,15,06,21,0.80
2009,02,15,06,22,0.80
2009,02,15,06,23,0.80
2009,02,15,06,24,0.80
2009,02,15,06,25,0.80
2009,02,15,06,26,0.80
2009,02,15,06,27,0.80
2009,02,15,06,28,0.80
2009,02,15,06,29,0.70
2009,02,15,06,30,0.70
2009,02,15,06,31,0.70
2009,02,15,06,32,0.60
2009,02,15,06,33,0.50
2009,02,15,06,34,0.40
2009,02,15,06,35,0.40
2009,02,15,06,36,0.30
2009,02,15,06,37,0.20
2009,02,15,06,38,0.20
2009,02,15,06,39,0.10
2009,02,15,06,40,0.10
2009,02,15,06,41,0.10
2009,02,15,06,42,0.00
2009,02,15,06,43,-0.10
2009,02,15,06,44,-0.20
2009,02,15,06,45,-0.20
2009,02,15,06,46,-0.20
2009,02,15,06,47,-0.20
2009,02,15,06,48,-0.20
2009,02,15,06,49,-0.20
2009,02,15,06,50,-0.20
2009,02,15,06,51,-0.10
2009,02,15,06,52,0.00
2009,02,15,06,53,0.10
2009,02,15,06,54,0.20
2009,02,15,06,55,0.30
2009,02,15,06,56,0.30
2009,02,15,06,57,0.40
2009,02,15,06,58,0.40
2009,02,15,06,59,0.50
2009,02,15,07,00,0.50
2009,02,15,07,01,0.40
2009,02,15,07,02,0.50
2009,02,15,07,03,0.50
2009,02,15,07,04,0.60
2009,02,15,07,05,0.60
2009,02,15,07,06,0.60
2009,02,15,07,07,0.70
2009,02,15,07,08,0.60
2009,02,15,07,09,0.60
2009,02,15,07,10,0.50
2009,02,15,07,11,0.50
2009,02,15,07,12,0.40
2009,02,15,07,13,0.50
2009,02,15,07,14,0.40
2009,02,15,07,15,0.40
2009,02,15,07,16,0.40
2009,02,15,07,17,0.40
2009,02,15,07,18,0.40
2009,02,15,07,19,0.50
2009,02,15,07,20,0.50
2009,02,15,07,21,0.60
2009,02,15,07,22,0.60
2009,02,15,07,23,0.70
2009,02,15,07,24,0.70
2009,02,15,07,25,0.70
2009,02,15,07,26,0.60
2009,02,15,07,27,0.60
2009,02,15,07,28,0.60
2009,02,15,07,29,0.70
2009,02,15,07,30,0.70
2009,02,15,07,31,0.80
2009,02,15,07,32,0.80
2009,02,15,07,33,0.80
2009,02,15,07,34,0.70
2009,02,15,07,35,0.70
2009,02,15,07,36,0.70
2009,02,15,07,37,0.60
2009,02,15,07,38,0.60
2009,02,15,07,39,0.70
2009,02,15,07,40,0.60
2009,02,15,07,41,0.60
2009,02,15,07,42,0.60
2009,02,15,07,43,0.60
2009,02,15,07,44,0.60
2009,02,15,07,45,0.60
2009,02,15,07,46,0.60
2009,02,15,07,47,0.60
2009,02,15,07,48,0.50
2009,02,15,07,49,0.50
2009,02,15,07,50,0.60
2009,02,15,07,51,0.60
2009,02,15,07,52,0.70
2009,02,15,07,53,0.80
2009,02,15,07,54,0.80
2009,02,15,07,55,0.80
2009,02,15,07,56,0.80
2009,02,15,07,57,0.80
2009,02,15,07,58,0.80
2009,02,15,07,59,0.80
2009,02,15,08,00,0.80
2009,02,15,08,01,0.80
2009,02,15,08,02,0.70
2009,02,15,08,03,0.60
2009,02,15,08,04,0.60
2009,02,15,08,05,0.60
2009,02,15,08,06,0.60
2009,02,15,08,07,0.70
2009,02,15,08,08,0.70
2009,02,15,08,09,0.70
2009,02,15,08,10,0.80
2009,02,15,08,11,0.80
2009,02,15,08,12,0.90
2009,02,15,08,13,1.00
2009,02,15,08,14,1.10
2009,02,15,08,15,1.10
2009,02,15,08,16,1.10
2009,02,15,08,17,1.20
2009,02,15,08,18,1.20
2009,02,15,08,19,1.30
2009,02,15,08,20,1.30
2009,02,15,08,21,1.30
2009,02,15,08,22,1.30
2009,02,15,08,23,1.30
2009,02,15,08,24,1.30
2009,02,15,08,25,1.30
2009,02,15,08,26,1.30
2009,02,15,08,27,1.30
2009,02,15,08,28,1.30
2009,02,15,08,29,1.30
2009,02,15,08,30,1.40
2009,02,15,08,31,1.50
2009,02,15,08,32,1.70
2009,02,15,08,33,1.70
2009,02,15,08,34,1.80
2009,02,15,08,35,1.90
2009,02,15,08,36,1.90
2009,02,15,08,37,1.90
2009,02,15,08,38,1.90
2009,02,15,08,39,2.00
2009,02,15,08,40,2.00
2009,02,15,08,41,2.10
2009,02,15,08,42,2.20
2009,02,15,08,43,2.20
2009,02,15,08,44,2.30
2009,02,15,08,45,2.30
2009,02,15,08,46,2.40
2009,02,15,08,47,2.40
2009,02,15,08,48,2.50
2009,02,15,08,49,2.60
2009,02,15,08,50,2.70
2009,02,15,08,51,2.70
2009,02,15,08,52,2.80
2009,02,15,08,53,2.80
2009,02,15,08,54,2.90
2009,02,15,08,55,3.00
2009,02,15,08,56,3.10
2009,02,15,08,57,3.20
2009,02,15,08,58,3.20
2009,02,15,08,59,3.20
2009,02,15,09,00,3.30
2009,02,15,09,01,3.30
2009,02,15,09,02,3.30
2009,02,15,09,03,3.30
2009,02,15,09,04,3.30
2009,02,15,09,05,3.30
2009,02,15,09,06,3.30
2009,02,15,09,07,3.30
2009,02,15,09,08,3.30
2009,02,15,09,09,3.30
2009,02,15,09,10,3.30
2009,02,15,09,11,3.20
2009,02,15,09,12,3.20
2009,02,15,09,13,3.20
2009,02,15,09,14,3.20
2009,02,15,09,15,3.20
2009,02,15,09,16,3.20
2009,02,15,09,17,3.10
2009,02,15,09,18,3.10
2009,02,15,09,19,3.10
2009,02,15,09,20,3.10
2009,02,15,09,21,3.20
2009,02,15,09,22,3.20
2009,02,15,09,23,3.20
2009,02,15,09,24,3.30
2009,02,15,09,25,3.30
2009,02,15,09,26,3.40
2009,02,15,09,27,3.40
2009,02,15,09,28,3.50
2009,02,15,09,29,3.50
2009,02,15,09,30,3.60
2009,02,15,09,31,3.70
2009,02,15,09,32,3.80
2009,02,15,09,33,3.80
2009,02,15,09,34,3.90
2009,02,15,09,35,3.90
2009,02,15,09,36,3.90
2009,02,15,09,37,4.00
2009,02,15,09,38,4.00
2009,02,15,09,39,4.10
2009,02,15,09,40,4.10
2009,02,15,09,41,4.10
2009,02,15,09,42,4.10
2009,02,15,09,43,4.10
2009,02,15,09,44,4.20
2009,02,15,09,45,4.20
2009,02,15,09,46,4.20
2009,02,15,09,47,4.10
2009,02,15,09,48,4.10
2009,02,15,09,49,4.10
2009,02,15,09,50,4.10
2009,02,15,09,51,4.10
2009,02,15,09,52,4.20
2009,02,15,09,53,4.20
2009,02,15,09,54,4.20
2009,02,15,09,55,4.20
2009,02,15,09,56,4.10
2009,02,15,09,57,4.10
2009,02,15,09,58,4.10
2009,02,15,09,59,4.00
2009,02,15,10,00,4.00
2009,02,15,10,01,4.00
2009,02,15,10,02,4.10
2009,02,15,10,03,4.10
2009,02,15,10,04,4.00
2009,02,15,10,05,4.00
2009,02,15,10,06,4.00
2009,02,15,10,07,4.10
2009,02,15,10,08,4.00
2009,02,15,10,09,4.00
2009,02,15,10,10,4.00
2009,02,15,10,11,4.00
2009,02,15,10,12,4.00
2009,02,15,10,13,4.10
2009,02,15,10,14,4.10
2009,02,15,10,15,4.10
2009,02,15,10,16,4.10
2009,02,15,10,17,4.10
2009,02,15,10,18,4.10
2009,02,15,10,19,4.10
2009,02,15,10,20,4.20
2009,02,15,10,21,4.20
2009,02,15,10,22,4.20
2009,02,15,10,23,4.20
2009,02,15,10,24,4.20
2009,02,15,10,25,4.10
2009,02,15,10,26,4.00
2009,02,15,10,27,3.90
2009,02,15,10,28,3.90
2009,02,15,10,29,3.90
2009,02,15,10,30,3.90
2009,02,15,10,31,4.00
2009,02,15,10,32,4.10
2009,02,15,10,33,4.20
2009,02,15,10,34,4.20
2009,02,15,10,35,4.30
2009,02,15,10,36,4.30
2009,02,15,10,37,4.20
2009,02,15,10,38,4.10
2009,02,15,10,39,4.00
2009,02,15,10,40,3.90
2009,02,15,10,41,3.90
2009,02,15,10,42,3.90
2009,02,15,10,43,3.90
2009,02,15,10,44,3.90
2009,02,15,10,45,3.90
2009,02,15,10,46,3.90
2009,02,15,10,47,3.90
2009,02,15,10,48,3.90
2009,02,15,10,49,3.90
2009,02,15,10,50,3.90
2009,02,15,10,51,4.00
2009,02,15,10,52,4.00
2009,02,15,10,53,4.10
2009,02,15,10,54,4.10
2009,02,15,10,55,4.10
2009,02,15,10,56,4.10
2009,02,15,10,57,4.20
2009,02,15,10,58,4.30
2009,02,15,10,59,4.30
2009,02,15,11,00,4.40
2009,02,15,11,01,4.40
2009,02,15,11,02,4.40
2009,02,15,11,03,4.50
2009,02,15,11,04,4.60
2009,02,15,11,05,4.60
2009,02,15,11,06,4.70
2009,02,15,11,07,4.60
2009,02,15,11,08,4.60
2009,02,15,11,09,4.50
2009,02,15,11,10,4.50
2009,02,15,11,11,4.40
2009,02,15,11,12,4.30
2009,02,15,11,13,4.30
2009,02,15,11,14,4.40
2009,02,15,11,15,4.40
2009,02,15,11,16,4.50
2009,02,15,11,17,4.50
2009,02,15,11,18,4.60
2009,02,15,11,19,4.60
2009,02,15,11,20,4.50
2009,02,15,11,21,4.50
2009,02,15,11,22,4.50
2009,02,15,11,23,4.60
2009,02,15,11,24,4.60
2009,02,15,11,25,4.50
2009,02,15,11,26,4.50
2009,02,15,11,27,4.50
2009,02,15,11,28,4.50
2009,02,15,11,29,4.60
2009,02,15,11,30,4.50
2009,02,15,11,31,4.40
2009,02,15,11,32,4.40
2009,02,15,11,33,4.40
2009,02,15,11,34,4.40
2009,02,15,11,35,4.30
2009,02,15,11,36,4.40
2009,02,15,11,37,4.40
2009,02,15,11,38,4.50
2009,02,15,11,39,4.50
2009,02,15,11,40,4.50
2009,02,15,11,41,4.40
2009,02,15,11,42,4.40
2009,02,15,11,43,4.40
2009,02,15,11,44,4.40
2009,02,15,11,45,4.40
2009,02,15,11,46,4.40
2009,02,15,11,47,4.40
2009,02,15,11,48,4.40
2009,02,15,11,49,4.40
2009,02,15,11,50,4.50
2009,02,15,11,51,4.50
2009,02,15,11,52,4.50
2009,02,15,11,53,4.50
2009,02,15,11,54,4.40
2009,02,15,11,55,4.40
2009,02,15,11,56,4.40
2009,02,15,11,57,4.50
2009,02,15,11,58,4.50
2009,02,15,11,59,4.50
2009,02,15,12,00,4.50
2009,02,15,12,01,4.40
2009,02,15,12,02,4.30
2009,02,15,12,03,4.30
2009,02,15,12,04,4.30
2009,02,15,12,05,4.30
2009,02,15,12,06,4.40
2009,02,15,12,07,4.40
2009,02,15,12,08,4.40
2009,02,15,12,09,4.40
2009,02,15,12,10,4.40
2009,02,15,12,11,4.40
2009,02,15,12,12,4.50
2009,02,15,12,13,4.50
2009,02,15,12,14,4.50
2009,02,15,12,15,4.50
2009,02,15,12,16,4.50
2009,02,15,12,17,4.60
2009,02,15,12,18,4.60
2009,02,15,12,19,4.60
2009,02,15,12,20,4.70
2009,02,15,12,21,4.70
2009,02,15,12,22,4.70
2009,02,15,12,23,4.70
2009,02,15,12,24,4.60
2009,02,15,12,25,4.60
2009,02,15,12,26,4.70
2009,02,15,12,27,4.60
2009,02,15,12,28,4.60
2009,02,15,12,29,4.50
2009,02,15,12,30,4.50
2009,02,15,12,31,4.50
2009,02,15,12,32,4.60
2009,02,15,12,33,4.60
2009,02,15,12,34,4.70
2009,02,15,12,35,4.70
2009,02,15,12,36,4.70
2009,02,15,12,37,4.70
2009,02,15,12,38,4.80
2009,02,15,12,39,4.80
2009,02,15,12,40,4.80
2009,02,15,12,41,4.70
2009,02,15,12,42,4.70
2009,02,15,12,43,4.80
2009,02,15,12,44,4.80
2009,02,15,12,45,4.90
2009,02,15,12,46,5.00
2009,02,15,12,47,5.10
2009,02,15,12,48,5.10
2009,02,15,12,49,5.00
2009,02,15,12,50,5.00
2009,02,15,12,51,4.90
2009,02,15,12,52,4.90
2009,02,15,12,53,5.00
2009,02,15,12,54,5.10
2009,02,15,12,55,5.20
2009,02,15,12,56,5.20
2009,02,15,12,57,5.10
2009,02,15,12,58,5.10
2009,02,15,12,59,5.00
2009,02,15,13,00,4.90
2009,02,15,13,01,4.80
2009,02,15,13,02,4.80
2009,02,15,13,03,4.80
2009,02,15,13,04,4.90
2009,02,15,13,05,4.90
2009,02,15,13,06,4.90
2009,02,15,13,07,4.90
2009,02,15,13,08,4.90
2009,02,15,13,09,4.90
2009,02,15,13,10,4.90
2009,02,15,13,11,4.90
2009,02,15,13,12,4.90
2009,02,15,13,13,4.90
2009,02,15,13,14,4.90
2009,02,15,13,15,4.90
2009,02,15,13,16,4.80
2009,02,15,13,17,4.80
2009,02,15,13,18,4.90
2009,02,15,13,19,4.90
2009,02,15,13,20,4.90
2009,02,15,13,21,4.90
2009,02,15,13,22,5.00
2009,02,15,13,23,5.10
2009,02,15,13,24,5.10
2009,02,15,13,25,5.10
2009,02,15,13,26,5.10
2009,02,15,13,27,5.10
2009,02,15,13,28,5.10
2009,02,15,13,29,5.00
2009,02,15,13,30,4.90
2009,02,15,13,31,4.90
2009,02,15,13,32,4.90
2009,02,15,13,33,5.00
2009,02,15,13,34,4.90
2009,02,15,13,35,5.00
2009,02,15,13,36,5.00
2009,02,15,13,37,5.00
2009,02,15,13,38,5.00
2009,02,15,13,39,5.00
2009,02,15,13,40,4.90
2009,02,15,13,41,4.90
2009,02,15,13,42,4.90
2009,02,15,13,43,4.90
2009,02,15,13,44,4.90
2009,02,15,13,45,4.90
2009,02,15,13,46,4.90
2009,02,15,13,47,4.90
2009,02,15,13,48,4.90
2009,02,15,13,49,4.90
2009,02,15,13,50,4.90
2009,02,15,13,51,5.00
2009,02,15,13,52,5.00
2009,02,15,13,53,5.10
2009,02,15,13,54,5.10
2009,02,15,13,55,5.10
2009,02,15,13,56,5.10
2009,02,15,13,57,5.10
2009,02,15,13,58,5.10
2009,02,15,13,59,5.10
2009,02,15,14,00,5.10
2009,02,15,14,01,5.10
2009,02,15,14,02,5.10
2009,02,15,14,03,5.10
2009,02,15,14,04,5.10
2009,02,15,14,05,5.10
2009,02,15,14,06,5.10
2009,02,15,14,07,5.10
2009,02,15,14,08,5.10
2009,02,15,14,09,5.10
2009,02,15,14,10,5.10
2009,02,15,14,11,5.10
2009,02,15,14,12,5.10
2009,02,15,14,13,5.10
2009,02,15,14,14,5.20
2009,02,15,14,15,5.20
2009,02,15,14,16,5.30
2009,02,15,14,17,5.30
2009,02,15,14,18,5.30
2009,02,15,14,19,5.30
2009,02,15,14,20,5.30
2009,02,15,14,21,5.30
2009,02,15,14,22,5.30
2009,02,15,14,23,5.40
2009,02,15,14,24,5.40
2009,02,15,14,25,5.40
2009,02,15,14,26,5.40
2009,02,15,14,27,5.40
2009,02,15,14,28,5.40
2009,02,15,14,29,5.40
2009,02,15,14,30,5.30
2009,02,15,14,31,5.30
2009,02,15,14,32,5.30
2009,02,15,14,33,5.40
2009,02,15,14,34,5.40
2009,02,15,14,35,5.40
2009,02,15,14,36,5.40
2009,02,15,14,37,5.30
2009,02,15,14,38,5.30
2009,02,15,14,39,5.30
2009,02,15,14,40,5.30
2009,02,15,14,41,5.30
2009,02,15,14,42,5.30
2009,02,15,14,43,5.30
2009,02,15,14,44,5.30
2009,02,15,14,45,5.40
2009,02,15,14,46,5.40
2009,02,15,14,47,5.40
2009,02,15,14,48,5.40
2009,02,15,14,49,5.50
2009,02,15,14,50,5.40
2009,02,15,14,51,5.40
2009,02,15,14,52,5.40
2009,02,15,14,53,5.40
2009,02,15,14,54,5.40
2009,02,15,14,55,5.40
2009,02,15,14,56,5.40
2009,02,15,14,57,5.40
2009,02,15,14,58,5.40
2009,02,15,14,59,5.40
2009,02,15,15,00,5.40
2009,02,15,15,01,5.40
2009,02,15,15,02,5.30
2009,02,15,15,03,5.30
2009,02,15,15,04,5.30
2009,02,15,15,05,5.30
2009,02,15,15,06,5.40
2009,02,15,15,07,5.40
2009,02,15,15,08,5.50
2009,02,15,15,09,5.50
2009,02,15,15,10,5.50
2009,02,15,15,11,5.50
2009,02,15,15,12,5.50
2009,02,15,15,13,5.50
2009,02,15,15,14,5.50
2009,02,15,15,15,5.50
2009,02,15,15,16,5.50
2009,02,15,15,17,5.50
2009,02,15,15,18,5.50
2009,02,15,15,19,5.50
2009,02,15,15,20,5.60
2009,02,15,15,21,5.60
2009,02,15,15,22,5.60
2009,02,15,15,23,5.60
2009,02,15,15,24,5.60
2009,02,15,15,25,5.60
2009,02,15,15,26,5.50
2009,02,15,15,27,5.50
2009,02,15,15,28,5.50
2009,02,15,15,29,5.40
2009,02,15,15,30,5.40
2009,02,15,15,31,5.50
2009,02,15,15,32,5.50
2009,02,15,15,33,5.60
2009,02,15,15,34,5.60
2009,02,15,15,35,5.60
2009,02,15,15,36,5.60
2009,02,15,15,37,5.50
2009,02,15,15,38,5.50
2009,02,15,15,39,5.50
2009,02,15,15,40,5.50
2009,02,15,15,41,5.50
2009,02,15,15,42,5.50
2009,02,15,15,43,5.60
2009,02,15,15,44,5.60
2009,02,15,15,45,5.60
2009,02,15,15,46,5.60
2009,02,15,15,47,5.70
2009,02,15,15,48,5.60
2009,02,15,15,49,5.60
2009,02,15,15,50,5.60
2009,02,15,15,51,5.60
2009,02,15,15,52,5.60
2009,02,15,15,53,5.70
2009,02,15,15,54,5.70
2009,02,15,15,55,5.80
2009,02,15,15,56,5.80
2009,02,15,15,57,5.80
2009,02,15,15,58,5.80
2009,02,15,15,59,5.70
2009,02,15,16,00,5.70
2009,02,15,16,01,5.70
2009,02,15,16,02,5.70
2009,02,15,16,03,5.70
2009,02,15,16,04,5.60
2009,02,15,16,05,5.60
2009,02,15,16,06,5.60
2009,02,15,16,07,5.60
2009,02,15,16,08,5.60
2009,02,15,16,09,5.60
2009,02,15,16,10,5.60
2009,02,15,16,11,5.50
2009,02,15,16,12,5.50
2009,02,15,16,13,5.50
2009,02,15,16,14,5.50
2009,02,15,16,15,5.50
2009,02,15,16,16,5.50
2009,02,15,16,17,5.50
2009,02,15,16,18,5.50
2009,02,15,16,19,5.60
2009,02,15,16,20,5.60
2009,02,15,16,21,5.60
2009,02,15,16,22,5.60
2009,02,15,16,23,5.70
2009,02,15,16,24,5.70
2009,02,15,16,25,5.70
2009,02,15,16,26,5.60
2009,02,15,16,27,5.60
2009,02,15,16,28,5.60
2009,02,15,16,29,5.60
2009,02,15,16,30,5.60
2009,02,15,16,31,5.60
2009,02,15,16,32,5.60
2009,02,15,16,33,5.70
2009,02,15,16,34,5.80
2009,02,15,16,35,5.90
2009,02,15,16,36,6.00
2009,02,15,16,37,6.10
2009,02,15,16,38,6.20
2009,02,15,16,39,6.20
2009,02,15,16,40,6.20
2009,02,15,16,41,6.30
2009,02,15,16,42,6.30
2009,02,15,16,43,6.20
2009,02,15,16,44,6.20
2009,02,15,16,45,6.20
2009,02,15,16,46,6.10
2009,02,15,16,47,6.00
2009,02,15,16,48,5.90
2009,02,15,16,49,5.80
2009,02,15,16,50,5.80
2009,02,15,16,51,5.70
2009,02,15,16,52,5.60
2009,02,15,16,53,5.60
2009,02,15,16,54,5.50
2009,02,15,16,55,5.50
2009,02,15,16,56,5.50
2009,02,15,16,57,5.40
2009,02,15,16,58,5.40
2009,02,15,16,59,5.40
2009,02,15,17,00,5.40
2009,02,15,17,01,5.50
2009,02,15,17,02,5.50
2009,02,15,17,03,5.50
2009,02,15,17,04,5.50
2009,02,15,17,05,5.50
2009,02,15,17,06,5.50
2009,02,15,17,07,5.50
2009,02,15,17,08,5.50
2009,02,15,17,09,5.40
2009,02,15,17,10,5.40
2009,02,15,17,11,5.30
2009,02,15,17,12,5.30
2009,02,15,17,13,5.20
2009,02,15,17,14,5.10
2009,02,15,17,15,5.00
2009,02,15,17,16,4.90
2009,02,15,17,17,4.80
2009,02,15,17,18,4.80
2009,02,15,17,19,4.70
2009,02,15,17,20,4.60
2009,02,15,17,21,4.50
2009,02,15,17,22,4.40
2009,02,15,17,23,4.30
2009,02,15,17,24,4.20
2009,02,15,17,25,4.10
2009,02,15,17,26,4.00
2009,02,15,17,27,3.90
2009,02,15,17,28,3.90
2009,02,15,17,29,3.80
2009,02,15,17,30,3.70
2009,02,15,17,31,3.60
2009,02,15,17,32,3.50
2009,02,15,17,33,3.40
2009,02,15,17,34,3.30
2009,02,15,17,35,3.20
2009,02,15,17,36,3.00
2009,02,15,17,37,2.90
2009,02,15,17,38,2.80
2009,02,15,17,39,2.70
2009,02,15,17,40,2.60
2009,02,15,17,41,2.50
2009,02,15,17,42,2.40
2009,02,15,17,43,2.40
2009,02,15,17,44,2.30
2009,02,15,17,45,2.30
2009,02,15,17,46,2.30
2009,02,15,17,47,2.40
2009,02,15,17,48,2.30
2009,02,15,17,49,2.30
2009,02,15,17,50,2.30
2009,02,15,17,51,2.30
2009,02,15,17,52,2.20
2009,02,15,17,53,2.20
2009,02,15,17,54,2.10
2009,02,15,17,55,2.00
2009,02,15,17,56,2.00
2009,02,15,17,57,2.00
2009,02,15,17,58,1.90
2009,02,15,17,59,1.90
2009,02,15,18,00,1.90
2009,02,15,18,01,1.80
2009,02,15,18,02,1.80
2009,02,15,18,03,1.80
2009,02,15,18,04,1.70
2009,02,15,18,05,1.70
2009,02,15,18,06,1.70